STARLINK-1907 (47177 NORAD) Tracking and Keplerian Element Data

This shows tracking and keplerian element data for the satellite.

Feedback or suggestion? Click here.




ElementValue
Catalog47177
NameSTARLINK-1907
Epoch Orbit180
Epoch Day99.91667824
Epoch Year2021
RAAN68.6703
Inclination53.056
Eccentricity0.0002021
Argument of Perigee62.0668
Mean Anonmoly93.9304
Mean Motion15.06380703
Decay Rate8.794E-05
L11 47177U 20088BH 21099.91667824 .00008794 00000-0 60886-3 0 9997
L22 47177 53.0560 68.6703 0002021 62.0668 93.9304 15.06380703 1800

Live tracking and technical data element details for STARLINK-1907 (NORAD 47177). STARLINK-1907 can be tracked NOW for your location showing map with azimuth and elevation plus other details from your city location.

Track the satellite on the map from your city or location and see movement details for azimuth, elevation, latitude, longitude, range, height, and movement on the map or in text.







IsCatalogInMostPopularTable: catalog: 47177, numindb: 47
Update: records affected: 1



GetName: 47177 STARLINK-1907

Hit Count: updated at: Sat, 10 Apr 2021 19:51:51 GMT